Simultaneous Nadir Overpasses (SNOs) Predictions

Prediction of SNOs between GOES-15 and METOP-A Satellite Orbit:

Table of predicted SNOs for the next 14.0 days since TLE Epoch: 10/16/2021
Index Date Time (GOES-15) GOES-15 Lat,Lon METOP-A Lat,Lon Distance(km) Time Diff (sec)
1 10/16/2021 04:11:19 0.26,-128.16 1.19,-124.02 471.14 80
2 10/17/2021 16:27:29 -0.28,-128.20 -0.16,-128.62 48.87 80
3 10/20/2021 04:25:48 0.29,-128.25 0.27,-128.29 4.30 80
4 10/22/2021 16:26:38 -0.29,-128.30 -0.36,-127.91 44.78 80
5 10/24/2021 04:42:57 0.30,-128.32 -0.63,-132.55 481.21 80
6 10/25/2021 04:24:57 0.29,-128.34 0.48,-127.57 87.87 80
7 10/26/2021 16:41:07 -0.30,-128.36 0.55,-132.17 434.00 80
8 10/27/2021 16:23:07 -0.29,-128.37 -0.56,-127.19 134.80 80
9 10/29/2021 04:39:25 0.30,-128.38 -0.48,-131.82 392.04 80
